Time,TemperatureF,DewpointF,PressureIn,WindDirection,WindDirectionDegrees,WindSpeedMPH,WindSpeedGustMPH,Humidity,HourlyPrecipIn,Conditions,Clouds,dailyrainin,SolarRadiationWatts/m^2,SoftwareType,DateUTC
2013-01-26 00:02:00,47.0,43.0,30.08,WNW,290,8.0,13.0,87,0.00,,,0.00,0.000000,,2013-01-26 08:02:00,
2013-01-26 00:11:00,47.0,43.0,30.08,WNW,290,8.0,13.0,87,0.00,,,0.00,0.000000,,2013-01-26 08:11:00,
2013-01-26 00:42:00,44.0,43.0,30.06,WNW,287,9.0,11.0,96,0.00,,,0.00,0.000000,,2013-01-26 08:42:00,
2013-01-26 00:54:00,44.0,43.0,30.06,WNW,287,9.0,11.0,96,0.00,,,0.00,0.000000,,2013-01-26 08:54:00,
2013-01-26 01:02:00,44.0,43.0,30.06,WNW,287,9.0,11.0,96,0.00,,,0.00,0.000000,,2013-01-26 09:02:00,
2013-01-26 01:11:00,44.0,43.0,30.06,WNW,287,9.0,11.0,96,0.00,,,0.00,0.000000,,2013-01-26 09:11:00,
2013-01-26 01:32:00,44.0,42.0,30.04,WNW,286,13.0,14.0,93,0.00,,,-99.99,0.000000,,2013-01-26 09:32:00,
2013-01-26 01:42:00,44.0,42.0,30.04,WNW,286,13.0,14.0,93,0.00,,,-99.99,0.000000,,2013-01-26 09:42:00,
2013-01-26 01:52:00,44.0,42.0,30.04,WNW,286,13.0,14.0,93,0.00,,,-99.99,0.000000,,2013-01-26 09:52:00,
2013-01-26 02:01:00,44.0,42.0,30.04,WNW,286,13.0,14.0,93,0.00,,,-99.99,0.000000,,2013-01-26 10:01:00,
2013-01-26 02:11:00,44.0,42.0,30.04,WNW,286,13.0,14.0,93,0.00,,,-99.99,0.000000,,2013-01-26 10:11:00,
2013-01-26 02:42:00,42.0,41.0,30.03,WNW,288,16.0,23.0,95,0.00,,,0.00,0.000000,,2013-01-26 10:42:00,
2013-01-26 02:52:00,42.0,41.0,30.03,WNW,288,16.0,23.0,95,0.00,,,0.00,0.000000,,2013-01-26 10:52:00,
2013-01-26 03:01:00,42.0,41.0,30.03,WNW,288,16.0,23.0,95,0.00,,,0.00,0.000000,,2013-01-26 11:01:00,
2013-01-26 03:12:00,42.0,41.0,30.03,WNW,288,16.0,23.0,95,0.00,,,0.00,0.000000,,2013-01-26 11:12:00,
2013-01-26 03:32:00,43.0,41.0,30.01,WNW,292,18.0,24.0,93,0.00,,,0.00,0.000000,,2013-01-26 11:32:00,
2013-01-26 03:42:00,43.0,41.0,30.01,WNW,292,18.0,24.0,93,0.00,,,0.00,0.000000,,2013-01-26 11:42:00,
2013-01-26 03:52:00,43.0,41.0,30.01,WNW,292,18.0,24.0,93,0.00,,,0.00,0.000000,,2013-01-26 11:52:00,
2013-01-26 04:01:00,43.0,41.0,30.01,WNW,292,18.0,24.0,93,0.00,,,0.00,0.000000,,2013-01-26 12:01:00,
2013-01-26 04:12:00,43.0,41.0,30.01,WNW,292,18.0,24.0,93,0.00,,,0.00,0.000000,,2013-01-26 12:12:00,
2013-01-26 04:33:00,42.0,41.0,30.00,WNW,298,23.0,25.0,98,0.00,,,0.00,0.000000,,2013-01-26 12:33:00,
2013-01-26 04:42:00,42.0,41.0,30.00,WNW,298,23.0,25.0,98,0.00,,,0.00,0.000000,,2013-01-26 12:42:00,
2013-01-26 04:53:00,42.0,41.0,30.00,WNW,298,23.0,25.0,98,0.00,,,0.00,0.000000,,2013-01-26 12:53:00,
2013-01-26 05:03:00,42.0,41.0,30.00,WNW,298,23.0,25.0,98,0.00,,,0.00,0.000000,,2013-01-26 13:03:00,
2013-01-26 05:12:00,42.0,41.0,30.00,WNW,298,23.0,25.0,98,0.00,,,0.00,0.000000,,2013-01-26 13:12:00,
2013-01-26 05:42:00,44.0,43.0,29.99,WNW,295,16.0,27.0,98,0.02,,,0.02,0.000000,,2013-01-26 13:42:00,
2013-01-26 05:53:00,44.0,43.0,29.99,WNW,295,16.0,27.0,98,0.02,,,0.02,0.000000,,2013-01-26 13:53:00,
2013-01-26 06:02:00,44.0,43.0,29.99,WNW,295,16.0,27.0,98,0.02,,,0.02,0.000000,,2013-01-26 14:02:00,
2013-01-26 06:11:00,44.0,43.0,29.99,WNW,295,16.0,27.0,98,0.02,,,0.02,0.000000,,2013-01-26 14:11:00,
2013-01-26 06:32:00,42.0,41.0,29.98,WNW,295,21.0,30.0,98,0.00,,,0.02,0.000000,,2013-01-26 14:32:00,
2013-01-26 06:43:00,42.0,41.0,29.98,WNW,295,21.0,30.0,98,0.00,,,0.02,0.000000,,2013-01-26 14:43:00,
2013-01-26 06:53:00,42.0,41.0,29.98,WNW,295,21.0,30.0,98,0.00,,,0.02,0.000000,,2013-01-26 14:53:00,
2013-01-26 07:02:00,42.0,41.0,29.98,WNW,295,21.0,30.0,98,0.00,,,0.02,0.000000,,2013-01-26 15:02:00,
2013-01-26 07:12:00,42.0,41.0,29.98,WNW,295,21.0,30.0,98,0.00,,,0.02,0.000000,,2013-01-26 15:12:00,
2013-01-26 07:33:00,43.0,42.0,29.98,WNW,295,26.0,33.0,98,0.01,,,0.03,0.000000,,2013-01-26 15:33:00,
2013-01-26 07:43:00,43.0,42.0,29.98,WNW,295,26.0,33.0,98,0.01,,,0.03,0.000000,,2013-01-26 15:43:00,
2013-01-26 07:53:00,43.0,42.0,29.98,WNW,295,26.0,33.0,98,0.01,,,0.03,0.000000,,2013-01-26 15:53:00,
2013-01-26 08:02:00,43.0,42.0,29.98,WNW,295,26.0,33.0,98,0.01,,,0.03,0.000000,,2013-01-26 16:02:00,
2013-01-26 08:12:00,43.0,42.0,29.98,WNW,295,26.0,33.0,98,0.01,,,0.03,0.000000,,2013-01-26 16:12:00,
2013-01-26 08:33:00,41.0,40.0,29.96,WNW,298,21.0,33.0,98,0.00,,,0.03,0.000000,,2013-01-26 16:33:00,
2013-01-26 08:43:00,41.0,40.0,29.96,WNW,298,21.0,33.0,98,0.00,,,0.03,0.000000,,2013-01-26 16:43:00,
2013-01-26 08:53:00,41.0,40.0,29.96,WNW,298,21.0,33.0,98,0.00,,,0.03,0.000000,,2013-01-26 16:53:00,
2013-01-26 09:03:00,41.0,40.0,29.96,WNW,298,21.0,33.0,98,0.00,,,0.03,0.000000,,2013-01-26 17:03:00,
2013-01-26 09:12:00,41.0,40.0,29.96,WNW,298,21.0,33.0,98,0.00,,,0.03,0.000000,,2013-01-26 17:12:00,
2013-01-26 09:33:00,42.0,41.0,29.97,WNW,287,15.0,27.0,98,0.00,,,0.03,34.000000,,2013-01-26 17:33:00,
2013-01-26 09:42:00,42.0,41.0,29.97,WNW,287,15.0,27.0,98,0.00,,,0.03,34.000000,,2013-01-26 17:42:00,
2013-01-26 09:53:00,42.0,41.0,29.97,WNW,287,15.0,27.0,98,0.00,,,0.03,34.000000,,2013-01-26 17:53:00,
2013-01-26 10:02:00,42.0,41.0,29.97,WNW,287,15.0,27.0,98,0.00,,,0.03,34.000000,,2013-01-26 18:02:00,
2013-01-26 10:11:00,42.0,41.0,29.97,WNW,287,15.0,27.0,98,0.00,,,0.03,34.000000,,2013-01-26 18:11:00,
2013-01-26 10:42:00,40.0,39.0,29.96,NNE,21,10.0,27.0,97,0.00,,,0.03,217.000000,,2013-01-26 18:42:00,
2013-01-26 10:52:00,40.0,39.0,29.96,NNE,21,10.0,27.0,97,0.00,,,0.03,217.000000,,2013-01-26 18:52:00,
2013-01-26 11:03:00,40.0,39.0,29.96,NNE,21,10.0,27.0,97,0.00,,,0.03,217.000000,,2013-01-26 19:03:00,
2013-01-26 11:11:00,40.0,39.0,29.96,NNE,21,10.0,27.0,97,0.00,,,0.03,217.000000,,2013-01-26 19:11:00,
2013-01-26 11:43:00,37.0,34.0,29.96,WSW,251,18.0,28.0,90,0.00,,,0.03,339.000000,,2013-01-26 19:43:00,
2013-01-26 11:52:00,37.0,34.0,29.96,WSW,251,18.0,28.0,90,0.00,,,0.03,339.000000,,2013-01-26 19:52:00,
2013-01-26 12:02:00,37.0,34.0,29.96,WSW,251,18.0,28.0,90,0.00,,,0.03,339.000000,,2013-01-26 20:02:00,
2013-01-26 12:11:00,37.0,34.0,29.96,WSW,251,18.0,28.0,90,0.00,,,0.03,339.000000,,2013-01-26 20:11:00,
2013-01-26 12:42:00,39.0,35.0,29.95,West,276,16.0,-999.0,84,0.00,,,0.03,538.000000,,2013-01-26 20:42:00,
2013-01-26 12:52:00,39.0,35.0,29.95,West,276,16.0,-999.0,84,0.00,,,0.03,538.000000,,2013-01-26 20:52:00,
2013-01-26 13:02:00,39.0,35.0,29.95,West,276,16.0,-999.0,84,0.00,,,0.03,538.000000,,2013-01-26 21:02:00,
2013-01-26 13:12:00,39.0,35.0,29.95,West,276,16.0,-999.0,84,0.00,,,0.03,538.000000,,2013-01-26 21:12:00,
2013-01-26 13:32:00,38.0,27.0,29.93,WSW,250,13.0,31.0,64,0.00,,,0.03,527.000000,,2013-01-26 21:32:00,
2013-01-26 13:43:00,38.0,27.0,29.93,WSW,250,13.0,31.0,64,0.00,,,0.03,527.000000,,2013-01-26 21:43:00,
2013-01-26 13:52:00,38.0,27.0,29.93,WSW,250,13.0,31.0,64,0.00,,,0.03,527.000000,,2013-01-26 21:52:00,
2013-01-26 14:01:00,38.0,27.0,29.93,WSW,250,13.0,31.0,64,0.00,,,0.03,527.000000,,2013-01-26 22:01:00,
2013-01-26 14:11:00,38.0,27.0,29.93,WSW,250,13.0,31.0,64,0.00,,,0.03,527.000000,,2013-01-26 22:11:00,
2013-01-26 14:42:00,40.0,34.0,29.92,West,279,13.0,-999.0,78,0.00,,,0.03,653.000000,,2013-01-26 22:42:00,
2013-01-26 14:52:00,40.0,34.0,29.92,West,279,13.0,-999.0,78,0.00,,,0.03,653.000000,,2013-01-26 22:52:00,
2013-01-26 15:01:00,40.0,34.0,29.92,West,279,13.0,-999.0,78,0.00,,,0.03,653.000000,,2013-01-26 23:01:00,
2013-01-26 15:11:00,40.0,34.0,29.92,West,279,13.0,-999.0,78,0.00,,,0.03,653.000000,,2013-01-26 23:11:00,
2013-01-26 15:42:00,38.0,36.0,29.93,NNE,32,13.0,29.0,92,0.00,,,0.03,609.000000,,2013-01-26 23:42:00,
2013-01-26 15:52:00,38.0,36.0,29.93,NNE,32,13.0,29.0,92,0.00,,,0.03,609.000000,,2013-01-26 23:52:00,
2013-01-26 16:02:00,38.0,36.0,29.93,NNE,32,13.0,29.0,92,0.00,,,0.03,609.000000,,2013-01-27 00:02:00,
2013-01-26 16:11:00,38.0,36.0,29.93,NNE,32,13.0,29.0,92,0.00,,,0.03,609.000000,,2013-01-27 00:11:00,
2013-01-26 16:32:00,35.0,34.0,29.92,WNW,297,14.0,-999.0,95,0.00,,,0.03,394.000000,,2013-01-27 00:32:00,
2013-01-26 16:42:00,35.0,34.0,29.92,WNW,297,14.0,-999.0,95,0.00,,,0.03,394.000000,,2013-01-27 00:42:00,
2013-01-26 16:52:00,35.0,34.0,29.92,WNW,297,14.0,-999.0,95,0.00,,,0.03,394.000000,,2013-01-27 00:52:00,
2013-01-26 17:01:00,35.0,34.0,29.92,WNW,297,14.0,-999.0,95,0.00,,,0.03,394.000000,,2013-01-27 01:01:00,
2013-01-26 17:11:00,35.0,34.0,29.92,WNW,297,14.0,-999.0,95,0.00,,,0.03,394.000000,,2013-01-27 01:11:00,
2013-01-26 17:32:00,34.0,30.0,29.91,NNW,335,13.0,-999.0,86,0.01,,,0.04,187.000000,,2013-01-27 01:32:00,
2013-01-26 17:42:00,34.0,30.0,29.91,NNW,335,13.0,-999.0,86,0.01,,,0.04,187.000000,,2013-01-27 01:42:00,
2013-01-26 17:52:00,34.0,30.0,29.91,NNW,335,13.0,-999.0,86,0.01,,,0.04,187.000000,,2013-01-27 01:52:00,
2013-01-26 18:01:00,34.0,30.0,29.91,NNW,335,13.0,-999.0,86,0.01,,,0.04,187.000000,,2013-01-27 02:01:00,
2013-01-26 18:11:00,34.0,30.0,29.91,NNW,335,13.0,-999.0,86,0.01,,,0.04,187.000000,,2013-01-27 02:11:00,
2013-01-26 18:42:00,32.0,32.0,29.93,West,271,19.0,-999.0,98,0.00,,,0.04,69.000000,,2013-01-27 02:42:00,
2013-01-26 18:52:00,32.0,32.0,29.93,West,271,19.0,-999.0,98,0.00,,,0.04,69.000000,,2013-01-27 02:52:00,
2013-01-26 19:01:00,32.0,32.0,29.93,West,271,19.0,-999.0,98,0.00,,,0.04,69.000000,,2013-01-27 03:01:00,
2013-01-26 19:11:00,32.0,32.0,29.93,West,271,19.0,-999.0,98,0.00,,,0.04,69.000000,,2013-01-27 03:11:00,
2013-01-26 19:32:00,33.0,33.0,29.93,West,272,16.0,-999.0,99,0.00,,,0.04,11.000000,,2013-01-27 03:32:00,
2013-01-26 19:42:00,33.0,33.0,29.93,West,272,16.0,-999.0,99,0.00,,,0.04,11.000000,,2013-01-27 03:42:00,
2013-01-26 19:52:00,33.0,33.0,29.93,West,272,16.0,-999.0,99,0.00,,,0.04,11.000000,,2013-01-27 03:52:00,
2013-01-26 20:01:00,33.0,33.0,29.93,West,272,16.0,-999.0,99,0.00,,,0.04,11.000000,,2013-01-27 04:01:00,
2013-01-26 20:11:00,33.0,33.0,29.93,West,272,16.0,-999.0,99,0.00,,,0.04,11.000000,,2013-01-27 04:11:00,
2013-01-26 20:32:00,32.0,32.0,29.94,WNW,288,21.0,-999.0,99,0.00,,,0.04,0.000000,,2013-01-27 04:32:00,
2013-01-26 20:42:00,32.0,32.0,29.94,WNW,288,21.0,-999.0,99,0.00,,,0.04,0.000000,,2013-01-27 04:42:00,
2013-01-26 20:52:00,32.0,32.0,29.94,WNW,288,21.0,-999.0,99,0.00,,,0.04,0.000000,,2013-01-27 04:52:00,
2013-01-26 21:03:00,32.0,32.0,29.94,WNW,288,21.0,-999.0,99,0.00,,,0.04,0.000000,,2013-01-27 05:03:00,
2013-01-26 21:11:00,32.0,32.0,29.94,WNW,288,21.0,-999.0,99,0.00,,,0.04,0.000000,,2013-01-27 05:11:00,
2013-01-26 21:32:00,32.0,32.0,29.94,WNW,284,25.0,-999.0,99,0.00,,,0.04,1.000000,,2013-01-27 05:32:00,
2013-01-26 21:42:00,32.0,32.0,29.94,WNW,284,25.0,-999.0,99,0.00,,,0.04,1.000000,,2013-01-27 05:42:00,
2013-01-26 21:52:00,32.0,32.0,29.94,WNW,284,25.0,-999.0,99,0.00,,,0.04,1.000000,,2013-01-27 05:52:00,
2013-01-26 22:01:00,32.0,32.0,29.94,WNW,284,25.0,-999.0,99,0.00,,,0.04,1.000000,,2013-01-27 06:01:00,
2013-01-26 22:11:00,32.0,32.0,29.94,WNW,284,25.0,-999.0,99,0.00,,,0.04,1.000000,,2013-01-27 06:11:00,
2013-01-26 22:32:00,32.0,32.0,29.94,North,351,23.0,-999.0,99,0.00,,,0.04,0.000000,,2013-01-27 06:32:00,
2013-01-26 22:42:00,32.0,32.0,29.94,North,351,23.0,-999.0,99,0.00,,,0.04,0.000000,,2013-01-27 06:42:00,
2013-01-26 22:52:00,32.0,32.0,29.94,North,351,23.0,-999.0,99,0.00,,,0.04,0.000000,,2013-01-27 06:52:00,
2013-01-26 23:01:00,32.0,32.0,29.94,North,351,23.0,-999.0,99,0.00,,,0.04,0.000000,,2013-01-27 07:01:00,
2013-01-26 23:13:00,32.0,32.0,29.94,North,351,23.0,-999.0,99,0.00,,,0.04,0.000000,,2013-01-27 07:13:00,
2013-01-26 23:32:00,31.0,31.0,29.95,NNW,345,0.0,-999.0,99,0.00,,,0.04,0.000000,,2013-01-27 07:32:00,
2013-01-26 23:42:00,31.0,31.0,29.95,NNW,345,0.0,-999.0,99,0.00,,,0.04,0.000000,,2013-01-27 07:42:00,
2013-01-26 23:52:00,31.0,31.0,29.95,NNW,345,0.0,-999.0,99,0.00,,,0.04,0.000000,,2013-01-27 07:52:00,